Regional Weather Roundup
Issued by NWS

Home | Current Version | Previous Version | Graphics & Text | Print | Product List | Glossary On
Versions: 1 2 3 4 5 6 7 8 9 10 11 12 13 14 15 16 17 18 19 20 21 22 23 24 25 26 27 28 29 30 31 32 33 34 35 36 37 38 39 40 41 42 43 44 45 46 47 48 49 50
000
ASUS43 KLSX 261759
RWRMO

WEATHER SUMMARY FOR MISSOURI
NATIONAL WEATHER SERVICE SPRINGFIELD MO
100 PM CDT WED JUL 26 2017

NOTE: "FAIR" INDICATES FEW OR NO CLOUDS BELOW 12,000 FEET WITH NO
       SIGNIFICANT WEATHER AND/OR OBSTRUCTIONS TO VISIBILITY.
       CURRENT SKY AND/OR WEATHER CONDITIONS ARE NOT AVAILABLE FOR
       CHILLICOTHE AND FARMINGTON.

MOZ001>031-035>038-043-044-053-054-261900-
...NORTHERN AND WESTERN MISSOURI...

CITY           SKY/WX    TMP DP  RH WIND       PRES   REMARKS
KANSAS CTY INT CLOUDY    79  75  87 S13       30.00F
6HR MIN TEMP:  77; 6HR MAX TEMP:  80; 6HR PCP:  0.05;

KANSAS C DTWN  LGT RAIN  81  78  91 S10       30.01F
6HR MIN TEMP:  80; 6HR MAX TEMP:  83; 6HR PCP:  0.05;

LEE`S SUMMIT   LGT RAIN  81  76  84 SW6       30.05F
6HR MIN TEMP:  79; 6HR MAX TEMP:  81; 6HR PCP: TRACE;

ST JOSEPH      CLOUDY    80  76  87 S8        29.99R
6HR MIN TEMP:  76; 6HR MAX TEMP:  81; 6HR PCP:  0.17;

CHILLICOTHE      N/A     81  77  88 CALM      30.03S
6HR MIN TEMP:  75; 6HR MAX TEMP:  82;

KIRKSVILLE     CLOUDY    84  75  74 W7        30.04S HX  92
6HR MIN TEMP:  73; 6HR MAX TEMP:  85;


$$
MOZ066>068-077>081-088>096-101>105-261900-
...SOUTHWEST MISSOURI...

CITY           SKY/WX    TMP DP  RH WIND       PRES   REMARKS
SPRINGFIELD    MOSUNNY   92  71  50 SW10      30.08F HX  98
6HR MIN TEMP:  74; 6HR MAX TEMP:  93;

JOPLIN         PTSUNNY   96  74  48 S12       30.05F HX 107
6HR MIN TEMP:  79; 6HR MAX TEMP:  96;

BRANSON        CLOUDY    91  70  49 SW7       30.11F HX  97

$$
MOZ032>034-039>042-045>050-055>058-069>072-261900-
...CENTRAL MISSOURI...

CITY           SKY/WX    TMP DP  RH WIND       PRES   REMARKS
COLUMBIA       MOSUNNY   91  74  57 SW7       30.05F HX 100
6HR MIN TEMP:  73; 6HR MAX TEMP:  92;

JEFFERSON CITY CLOUDY    91  74  57 CALM      30.02F HX 100
6HR MIN TEMP:  74; 6HR MAX TEMP:  91;

ROLLA          CLOUDY    89  74  60 S7        30.09F HX  98
6HR MIN TEMP:  75; 6HR MAX TEMP:  89;

SEDALIA        CLOUDY    87  78  74 SW7       30.06F HX 100
6HR MIN TEMP:  76; 6HR MAX TEMP:  87;

WHITEMAN AFB   CLOUDY    85  76  75 W10       30.04S HX  95
WARRENSBURG    CLOUDY    82  72  69 SW7       30.04F
OSAGE BEACH    CLOUDY    94  71  47 SW9G20    30.05F HX 101

$$
MOZ051-052-059>065-261900-
...EAST CENTRAL MISSOURI...

CITY           SKY/WX    TMP DP  RH WIND       PRES   REMARKS
ST LOUIS INTL  CLOUDY    95  74  50 NW9       30.04F HX 105
6HR MIN TEMP:  78; 6HR MAX TEMP:  97;

SPIRIT OF STL  CLOUDY    93  77  59 W9        30.03S HX 107
6HR MIN TEMP:  75; 6HR MAX TEMP:  94;

ST CHARLES     CLOUDY    91  76  61 W7        30.02F HX 103
6HR MIN TEMP:  74; 6HR MAX TEMP:  92;


$$
MOZ072>076-082>087-097>100-106>115-261900-
...SOUTH CENTRAL AND SOUTHEAST MISSOURI...

CITY           SKY/WX    TMP DP  RH WIND       PRES   REMARKS
CAPE GIRARDEAU SUNNY     92  78  63 SW7       30.04F HX 107
6HR MIN TEMP:  77; 6HR MAX TEMP:  92;

FARMINGTON     CLOUDY    94  72  48 VRB6      30.06F HX 102
6HR MIN TEMP:  76; 6HR MAX TEMP:  96;

POPLAR BLUFF   SUNNY     92  80  68 S8        30.05F HX 110
6HR MIN TEMP:  76; 6HR MAX TEMP:  92;

WEST PLAINS    CLOUDY    91  70  49 SW7G18    30.11F HX  96
6HR MIN TEMP:  75; 6HR MAX TEMP:  91;


$$




USA.gov is the U.S. government's official web portal to all federal, state and local government web resources and services.